PDT,Max TemperatureF,Mean TemperatureF,Min TemperatureF,Max Dew PointF,MeanDew PointF,Min DewpointF,Max Humidity, Mean Humidity, Min Humidity, Max Sea Level PressureIn, Mean Sea Level PressureIn, Min Sea Level PressureIn, Max VisibilityMiles, Mean VisibilityMiles, Min VisibilityMiles, Max Wind SpeedMPH, Mean Wind SpeedMPH, Max Gust SpeedMPH,PrecipitationIn, CloudCover, Events, WindDirDegrees
2010-10-1,62,56,50,58,55,50,94,88,77,30.13,29.99,29.80,10,8,2,14,5,23,0.00,7,,158
2010-10-2,64,57,50,55,52,50,100,84,63,30.13,30.08,29.97,10,8,1,13,3,17,0.00,5,,324
2010-10-3,61,52,42,52,48,41,96,83,58,30.06,30.00,29.96,10,10,7,14,3,17,0.00,5,,282
2010-10-4,59,50,40,50,46,38,93,81,67,30.32,30.16,30.06,10,10,7,14,4,18,T,6,Rain,11
2010-10-5,64,52,39,51,45,38,100,81,58,30.45,30.37,30.27,10,10,10,12,4,15,0.00,2,,49
2010-10-6,72,56,40,55,46,38,93,76,46,30.26,30.04,29.87,10,10,10,8,2,10,0.00,0,,100
2010-10-7,60,53,46,54,52,44,94,86,81,30.05,29.97,29.87,10,9,7,14,7,23,0.02,7,Rain,158
2010-10-8,60,58,55,59,55,51,100,95,75,30.06,30.02,29.94,10,5,1,23,11,37,1.50,8,Rain,146
2010-10-9,61,59,56,61,58,55,100,99,94,30.06,29.99,29.94,10,2,1,21,11,35,1.83,8,Rain,162
2010-10-10,60,51,42,61,50,41,100,88,60,30.35,30.25,30.01,10,7,0,18,3,25,0.06,4,Fog-Rain,276
2010-10-11,56,49,42,52,48,41,100,92,80,30.42,30.39,30.35,10,7,1,13,4,20,0.57,6,Rain,136
2010-10-12,62,53,44,54,49,45,100,91,70,30.39,30.32,30.25,10,7,0,9,3,10,0.00,3,Fog,60
2010-10-13,72,56,39,48,43,37,100,87,39,30.24,30.14,30.02,10,5,0,12,3,14,0.00,0,Fog,132
2010-10-14,56,49,42,52,47,42,100,94,69,30.25,30.14,30.07,10,5,0,10,2,15,0.29,6,Fog-Rain,44
2010-10-15,57,46,35,45,39,34,100,91,62,30.38,30.31,30.24,10,5,0,12,5,14,0.00,1,Fog,37
2010-10-16,58,45,32,42,38,31,97,80,51,30.23,30.20,30.19,10,10,10,10,3,14,0.00,0,,3
2010-10-17,59,45,31,44,38,30,97,83,55,30.27,30.24,30.21,10,10,10,10,2,13,0.00,0,,63
2010-10-18,59,50,40,47,43,39,97,85,53,30.30,30.26,30.24,10,9,1,6,1,32,0.00,4,,140
2010-10-19,66,52,37,52,44,36,100,85,58,30.25,30.16,30.01,10,8,2,10,2,13,0.00,0,,18
2010-10-20,69,54,39,52,45,38,96,87,47,30.01,29.89,29.85,10,6,0,10,1,12,0.00,1,Fog,153
2010-10-21,57,48,39,54,46,39,100,92,77,29.86,29.84,29.78,10,5,0,17,8,28,0.21,6,Fog-Rain,145
2010-10-22,58,54,49,54,52,48,100,94,82,29.89,29.83,29.79,10,7,1,16,7,29,0.98,8,Rain,156
2010-10-23,57,53,49,54,50,46,100,90,72,29.76,29.50,29.22,10,6,1,24,12,39,1.16,8,Rain,139
2010-10-24,55,51,47,54,47,43,94,90,74,29.35,29.25,29.17,10,6,1,26,9,60,1.30,8,Rain,188
2010-10-25,53,50,47,52,49,46,100,92,86,29.71,29.54,29.35,10,5,1,26,12,36,1.92,8,Rain,231
2010-10-26,55,51,47,50,47,45,100,91,80,30.08,29.82,29.67,10,8,2,16,4,21,0.77,8,Rain,233
2010-10-27,55,49,42,46,44,41,100,88,72,30.12,30.03,29.88,10,7,1,14,5,20,0.01,3,Rain,64
2010-10-28,57,51,45,52,47,42,97,89,77,30.00,29.91,29.83,10,9,2,13,4,18,0.57,8,Rain,111
2010-10-29,59,51,43,50,46,42,100,88,72,30.04,29.99,29.85,10,10,10,12,5,16,0.00,4,,94
2010-10-30,55,49,42,52,46,40,94,87,77,29.83,29.70,29.61,10,7,2,22,7,44,0.92,7,Rain,143
2010-10-31,54,48,41,52,46,43,100,85,71,30.02,29.92,29.74,10,7,0,21,8,38,0.17,4,Fog-Rain,146